x

8570283 - Ocean City Inlet, Md (ocim2) Weather Station

2:54pm - Mon 16th Jan 2017 All times are EST. -5 hours from GMT.

  • Wind
    5mph, 6mph gusts
  • Sea Temp 42°f
  • Air Temp 40°f
  • Sea Pressure 1029.9mb
  • 8570283 - Ocean City Inlet, Md
  • 8570283 - Ocean City Inlet, Md

More Historic Weather Station data

Upgrade to MSW Pro to gain access to the past 30 days of data for over 8000 Wavebouys and Weather Stations around the globe.

Join Pro

Comparision Forecast

View Surf forecast
   
Mon 01/16 2:54pm 5 6 mph 1029.9mb 42f 40f
2:48pm 5 6 mph - - -
2:42pm 5 7 mph 1029.9mb 42f 40f
2:36pm 5 6 mph 1030mb 42f 40f
2:30pm 3 5 mph 1030.1mb 42f 40f
2:24pm 2 5 mph 1030.1mb 42f 40f
2:18pm 3 5 mph 1030mb 42f 40f
2:12pm 3 6 mph 1029.8mb 42f 40f
2:06pm 3 5 mph 1030.1mb 42f 40f
2:00pm 5 6 mph 1030mb 42f 40f
1:54pm 5 6 mph 1030mb 42f 40f
1:48pm 6 7 mph 1029.9mb - -
1:42pm 6 7 mph 1030mb 42f 40f
1:36pm 5 6 mph 1030.3mb 42f 40f
1:30pm 5 6 mph 1030.5mb 42f 39f
1:24pm 3 5 mph 1030.6mb 42f 40f
1:18pm 3 5 mph 1030.8mb - -
1:12pm 3 6 mph 1030.8mb 42f 40f
1:06pm 5 7 mph 1030.9mb 42f 40f
1:00pm 5 6 mph 1031.2mb 42f 40f
12:54pm 2 5 mph 1031.2mb 42f 40f
12:48pm 5 6 mph 1031mb 42f -
12:42pm 5 6 mph 1031.2mb 42f 40f
12:36pm 3 6 mph 1031.2mb 42f 40f
12:30pm 3 6 mph 1031.4mb 42f 40f
12:24pm  -  3 mph 1031.4mb 42f 40f
12:18pm 3 6 mph 1031.4mb - -
12:12pm 3 5 mph 1031.5mb 42f 40f
12:06pm 3 6 mph 1031.5mb 42f 39f
12:00pm 3 6 mph 1031.7mb 42f 40f
11:54am 5 7 mph 1031.6mb 42f 40f
11:48am 5 7 mph 1031.7mb - -
11:42am 5 7 mph 1031.9mb 42f 39f
11:36am 3 6 mph 1032mb 42f 39f
11:30am 3 6 mph 1032mb 42f 40f
11:24am 5 7 mph 1032.2mb 42f 40f
11:18am 5 7 mph 1032.2mb 42f 40f
11:12am 6 8 mph 1032.3mb 42f 40f
11:06am 5 7 mph 1032.4mb 42f 40f
11:00am 5 7 mph 1032.7mb 42f 39f
10:54am 3 6 mph 1032.7mb 42f 40f
10:48am 5 6 mph 1032.7mb - -
10:42am 5 7 mph 1032.7mb 42f 39f
10:36am 6 7 mph 1032.8mb 42f 39f
10:30am 3 6 mph 1033mb 42f 40f
10:24am 5 6 mph 1033mb 42f 39f
10:18am 6 7 mph 1033mb 42f 39f
10:12am 3 6 mph 1033.1mb 42f 39f
10:06am 3 7 mph 1033.1mb 42f 39f
10:00am 6 7 mph 1033.2mb 42f 39f
9:54am 6 8 mph 1033.2mb 42f 39f
9:48am 5 6 mph 1033.1mb 42f 39f
9:42am 5 7 mph 1033mb 42f 39f
9:36am 5 6 mph 1033mb 42f 39f
9:30am 3 5 mph 1033mb 42f 39f
9:24am 3 6 mph 1032.9mb 42f 38f
9:18am 2 6 mph - - -
9:12am 3 6 mph 1032.7mb 42f 39f
9:06am 3 6 mph 1032.6mb 42f 38f
9:00am 5 7 mph 1032.7mb 42f 38f
8:54am 5 7 mph 1032.7mb 42f 39f
8:48am 6 8 mph 1032.6mb 42f 38f
8:42am 5 7 mph 1032.5mb 42f 38f
8:36am 6 7 mph 1032.4mb 42f 38f
8:30am 5 7 mph 1032.4mb 42f 38f
8:24am 6 7 mph 1032.4mb 42f 38f
8:18am 6 7 mph 1032.3mb 42f 38f
8:12am 3 6 mph 1032.1mb 42f 38f
8:06am 6 7 mph 1032mb 42f 37f
8:00am 6 7 mph 1031.8mb 42f 37f
7:48am 5 7 mph 1031.8mb 42f 37f
7:42am 5 6 mph 1031.7mb 42f 37f
7:36am 5 6 mph 1031.7mb 42f 37f
7:30am 6 7 mph 1031.7mb 42f 37f
7:24am 5 7 mph 1031.6mb 42f 37f
7:18am 5 6 mph 1031.6mb - -
7:12am 3 6 mph 1031.6mb 42f 37f
7:06am 5 7 mph 1031.6mb 42f 37f
7:00am 6 8 mph 1031.6mb 42f 37f
6:54am 5 7 mph 1031.7mb 42f 37f
6:48am 6 8 mph 1031.7mb 42f 37f
6:42am 3 7 mph 1031.6mb 42f 37f
6:36am 6 7 mph 1031.6mb 42f 37f
6:30am 5 7 mph 1031.6mb 42f 37f
6:24am 6 8 mph 1031.7mb 42f 37f
6:18am 5 7 mph 1031.7mb 42f 37f
6:12am 5 8 mph 1031.6mb 42f 37f
6:06am 6 8 mph 1031.6mb 42f 38f
6:00am 5 7 mph 1031.6mb 42f 38f
5:54am 6 8 mph 1031.5mb 42f 38f
5:48am 5 7 mph 1031.4mb 42f -
5:42am 6 7 mph 1031.4mb 42f 38f
5:36am 6 8 mph 1031.3mb 42f 38f
5:30am 6 8 mph 1031.2mb 42f 38f
5:24am 7 9 mph 1031.3mb 42f 38f
5:18am 8 10 mph 1031.4mb 42f 38f
5:12am 6 7 mph 1031.3mb 42f 38f
5:06am 6 8 mph 1031.2mb 42f 38f
5:00am 7 9 mph 1031.3mb 42f 38f
4:54am 6 9 mph 1031.2mb 42f 38f
4:48am 5 7 mph 1031.1mb 42f 39f
4:42am 6 8 mph 1031.1mb 42f 39f
4:36am 5 8 mph 1031.1mb 42f 39f
4:30am 6 7 mph 1031.1mb 42f 39f
4:24am 6 7 mph 1031mb 42f 39f
4:18am 5 8 mph - - -
4:12am 2 5 mph 1031mb 42f 39f
4:06am 6 8 mph 1031mb 42f 39f
4:00am 6 8 mph 1031.1mb 42f 39f
3:54am 5 7 mph 1031.2mb 42f 39f
3:48am 6 9 mph 1031.2mb 42f 39f
3:42am 5 8 mph 1031.1mb 42f 39f
3:36am 6 8 mph 1031.1mb 42f 39f
3:30am 6 7 mph 1031.2mb 42f 38f
3:24am 6 7 mph 1031.2mb 42f 38f
3:18am 7 8 mph 1031.3mb 42f 38f
3:12am 6 8 mph 1031.3mb 42f 38f
3:06am 6 7 mph 1031.2mb 42f 39f
3:00am 6 7 mph 1031.2mb 42f 38f
2:54am 6 7 mph 1031.3mb 42f 38f
2:48am 5 6 mph 1031.4mb 42f 39f
2:42am 5 6 mph 1031.3mb 42f 39f
2:36am 6
mph
1031.3mb 42f 39f
2:30am 5 6 mph 1031.2mb 42f 39f
2:24am 6 8 mph 1031.2mb 42f 39f
2:18am 7 8 mph 1031.3mb 42f 39f
2:12am 8 10 mph 1031.3mb 42f 39f
2:06am 6 8 mph 1031.2mb 42f 39f
2:00am 6 8 mph 1031.1mb 42f 39f
1:54am 5 7 mph 1031mb 42f 39f
1:48am 7 9 mph 1030.8mb 42f 38f
1:42am 5 7 mph 1030.8mb - -
1:36am 6 9 mph 1030.6mb - -
1:30am 8 10 mph - - -
1:24am 7 10 mph 1030.6mb 42f 39f
1:18am 7 13 mph 1030.6mb 42f 39f
1:12am 10 13 mph 1030.6mb 42f 38f
1:06am 10 11 mph 1030.6mb 42f 38f
1:00am 8 10 mph 1030.7mb 42f 39f
12:54am 9 11 mph 1030.7mb 42f 39f
12:48am 9 10 mph 1030.6mb 42f 39f
12:42am 8 9 mph 1030.6mb 42f 39f
12:36am 9 11 mph 1030.7mb 42f 39f
12:30am 8 9 mph 1030.6mb 42f 39f
12:24am 8 10 mph 1030.5mb 42f 39f
12:18am 7 8 mph 1030.5mb 42f 39f
12:12am 6 7 mph 1030.5mb 42f 39f
12:06am 6 7 mph 1030.4mb 42f 39f
12:00am 6 7 mph 1030.5mb 42f 39f
Sun 01/15 11:54pm 6 7 mph 1030.4mb 42f 39f
11:48pm 5 6 mph 1030.4mb 42f 39f
11:42pm 5 6 mph 1030.5mb 42f 39f
11:36pm 3
mph
1030.3mb 42f 38f
11:30pm 5 6 mph 1030.5mb 42f 39f
11:24pm 5 6 mph 1030.3mb 42f 38f
11:18pm 5 6 mph 1030.5mb 42f 38f
11:12pm 5 6 mph 1030.5mb 42f 38f
11:06pm 5 6 mph 1030.5mb 42f 38f
11:00pm 6 7 mph 1030.6mb 42f 38f
10:54pm 5 6 mph 1030.5mb 42f 38f
10:48pm 5
mph
1030.4mb 42f 39f
10:42pm 5 6 mph 1030.5mb 42f 39f
10:36pm 5
mph
1030.4mb 42f 39f
10:30pm 5 6 mph 1030.5mb 42f 39f
10:24pm 5 6 mph 1030.6mb 42f 39f
10:18pm 6
mph
1030.7mb 42f 39f
10:12pm 5 6 mph 1030.6mb 42f 39f
10:06pm 5 7 mph 1030.6mb 42f 39f
10:00pm 5
mph
1030.5mb 42f 39f
9:54pm 5 6 mph 1030.5mb 42f 39f
9:48pm 5 6 mph 1030.4mb 42f 40f
9:42pm 5 6 mph 1030.4mb 42f 40f
9:36pm 3 5 mph 1030.3mb 42f 39f
9:30pm 5
mph
1030.4mb 42f 40f
9:24pm 3 5 mph 1030.4mb 42f 40f
9:18pm 3 5 mph 1030.4mb 42f 40f
9:12pm 3 5 mph 1030.2mb 42f 40f
9:06pm 6 7 mph 1030.3mb 42f 40f
9:00pm 6 7 mph 1030.3mb 42f 40f
8:54pm 3 5 mph 1030.2mb 42f 40f
8:48pm 3 6 mph 1030.2mb 42f 40f
8:42pm 3 7 mph 1030.1mb 42f 40f
8:36pm 3 6 mph 1029.9mb 42f 40f
8:30pm 3 6 mph 1029.8mb 42f 40f
8:24pm 3 5 mph 1030mb 42f 40f
8:18pm 3 6 mph - - -
8:12pm 5 6 mph 1030mb 43f 40f
8:06pm 3 5 mph 1030mb 43f 40f
8:00pm 3 5 mph 1029.9mb 43f 40f
7:54pm 3 5 mph 1029.8mb 43f 40f
7:48pm 2 3 mph 1029.7mb - -
7:42pm 2 3 mph 1029.6mb 43f 40f
7:36pm 3 5 mph 1029.8mb 43f 40f
7:30pm 3 5 mph 1029.7mb 43f 40f
7:24pm  -  mph 1029.7mb 43f 40f
7:18pm 2 3 mph - - -
7:12pm 2 5 mph 1029.7mb 43f 40f
7:06pm 1 3 mph 1029.7mb 43f 40f
7:00pm 2 3 mph 1029.6mb 43f 40f
6:54pm 2 3 mph 1029.7mb 43f 40f
6:48pm 2 3 mph 1029.6mb 43f 40f
6:42pm 2 6 mph 1029.4mb 43f 40f
6:36pm 2 3 mph 1029.5mb 43f 40f
6:30pm  -  2 mph 1029.4mb 43f 39f
6:24pm  -  1 mph 1029.4mb 43f 40f
6:18pm 3 6 mph 1029.3mb 43f -
6:12pm 5 6 mph 1029.3mb 43f 40f
6:06pm 5 6 mph 1029.3mb 43f 40f
6:00pm 2 3 mph 1029.3mb 43f 40f
5:54pm 3 6 mph 1029.1mb 43f 40f
5:48pm 3 5 mph 1029mb 43f 40f
5:42pm 1 3 mph 1028.9mb 43f 40f
5:36pm 3 6 mph 1028.8mb 43f 40f
5:30pm 5 6 mph 1028.7mb 43f 40f
5:24pm 3 6 mph 1028.7mb 43f 40f
5:18pm 5 6 mph 1028.6mb 43f 40f
5:12pm 5 6 mph 1028.5mb 43f 40f
5:06pm 5 6 mph 1028.6mb 43f 40f
5:00pm 5 6 mph 1028.6mb 43f 40f
4:54pm 5 7 mph 1028.6mb 43f 40f
4:48pm 3 5 mph 1028.6mb 43f 40f
4:42pm 3 6 mph 1028.6mb 43f 40f
4:36pm 5 7 mph 1028.6mb 43f 40f
4:30pm 5 6 mph 1028.6mb 43f 40f
4:24pm 6 7 mph 1028.6mb 43f 40f
4:18pm 3 5 mph 1028.6mb 43f 40f
4:12pm 5 6 mph 1028.5mb 43f 40f
4:06pm 7 8 mph 1028.5mb 43f 40f
4:00pm 6 8 mph 1028.5mb 43f 40f
3:54pm 6 9 mph 1028.4mb 43f 41f
3:48pm 7 8 mph 1028.4mb 43f 40f
3:42pm 5 6 mph 1028.3mb 43f 41f
3:36pm 6 9 mph 1028.2mb 43f 41f
3:30pm 6 9 mph 1028.1mb 43f 42f
3:24pm 6 7 mph 1028.1mb 42f 42f
3:18pm 5 6 mph 1028.3mb - -
3:12pm 6 8 mph 1028.4mb 42f 42f
3:06pm 6 7 mph 1028.2mb 42f 42f
3:00pm 6 7 mph 1028.2mb 42f 42f
2:54pm 7 10 mph 1028.3mb 42f 42f
2:48pm 6 7 mph 1028.4mb 42f 42f
2:42pm 6 8 mph 1028.5mb 42f 41f
2:36pm 7 8 mph 1028.4mb 42f 41f
2:30pm 5 7 mph 1028.2mb 42f 42f
2:24pm 7 8 mph 1028.1mb 42f 41f
2:18pm 7 9 mph 1028.2mb 42f 41f
2:12pm 6 9 mph 1028.2mb 42f 41f
2:06pm 8 10 mph 1028.3mb 42f 41f
2:00pm 7 9 mph 1028.2mb 42f 41f
1:54pm 7 10 mph 1028.3mb 42f 41f
1:48pm 7 10 mph 1028.3mb 42f 41f
1:42pm 8 11 mph 1028.3mb - -
1:36pm 8 10 mph 1028.2mb 42f 41f
1:30pm 8 11 mph 1028.2mb 42f 41f
1:24pm 7 10 mph 1028.1mb 42f 40f
1:18pm 7 11 mph 1028.3mb 42f 40f
1:12pm 7 10 mph 1028.2mb 42f 40f
1:06pm 7 9 mph 1028.3mb 42f 40f
1:00pm 7 9 mph 1028.4mb 42f 40f
12:54pm 7 9 mph 1028.4mb 42f 40f
12:48pm 7 10 mph 1028.5mb 42f 40f
12:42pm 9 13 mph 1028.6mb 42f 40f
12:36pm 7 13 mph 1028.7mb 42f 40f
12:30pm 8 10 mph 1028.7mb 42f 40f
12:24pm 8 11 mph 1028.8mb 42f 39f
12:18pm 9 11 mph 1028.9mb 42f 40f
12:12pm 8 11 mph 1028.9mb 42f 39f
12:06pm 9 13 mph 1029mb 42f 40f
12:00pm 8 13 mph 1029mb 42f 39f
11:54am 7 9 mph 1029.1mb 42f 39f
11:48am 9 10 mph 1029.2mb 42f 39f
11:42am 8 11 mph 1029.1mb 42f 39f
11:36am 9 11 mph 1029.3mb 42f 38f
11:30am 9 11 mph 1029.3mb 42f 38f
11:24am 8 10 mph 1029.4mb 42f 38f
11:18am 9 14 mph 1029.4mb 42f 38f
11:12am 11 14 mph 1029.4mb 42f 38f
11:06am 8 11 mph 1029.5mb 42f 38f
11:00am 11 14 mph 1029.7mb 42f 38f
10:54am 10 14 mph 1029.8mb 42f 38f
10:48am 14 16 mph 1029.7mb 42f 37f
10:42am 10 14 mph 1029.8mb 42f 37f
10:36am 10 11 mph 1029.9mb 42f 37f
10:30am 10 13 mph 1029.9mb 42f 37f
10:24am 10 14 mph 1029.9mb 42f 37f
10:18am 10 13 mph 1029.9mb 42f 37f
10:12am 10 13 mph 1030mb 42f 37f
10:06am 10 15 mph 1030mb 42f 37f
10:00am 10 11 mph 1030mb 42f 36f
9:54am 11 14 mph 1030mb 42f 37f
9:48am 11 15 mph 1029.9mb 42f 36f
9:42am 10 13 mph 1029.9mb 42f 36f
9:36am 9 11 mph 1029.8mb 42f 36f
9:30am 10 13 mph 1029.7mb 42f 35f
9:24am 10 13 mph 1029.7mb 42f 36f
9:18am 11 14 mph 1029.7mb 42f 36f
9:12am 14 16 mph 1029.5mb 42f 36f
9:06am 11 14 mph 1029.5mb 42f 36f
9:00am 15 17 mph 1029.3mb 42f 35f
8:54am 13 17 mph 1029.2mb 42f 35f
8:48am 13 14 mph 1029.1mb 42f 35f
8:42am 13 17 mph 1029.1mb 42f 35f
8:36am 14 16 mph 1029mb 42f 35f
8:30am 13 16 mph 1028.9mb 42f 35f
8:24am 13 18 mph 1028.8mb 42f 35f
8:18am 11 15 mph 1028.8mb 42f 36f
8:12am 13 16 mph 1028.7mb 42f 36f
8:06am 11 14 mph 1028.6mb 42f 36f
8:00am 10 14 mph 1028.5mb 42f 36f
7:54am 9 14 mph 1028.4mb 42f 36f
7:48am 10 14 mph 1028.1mb 42f -
7:42am 11 14 mph 1028.1mb 42f 36f
7:36am 10 14 mph 1027.9mb 42f 36f
7:30am 13 15 mph 1027.9mb 42f 36f
7:24am 11 15 mph 1027.7mb 42f 36f
7:18am 10 13 mph 1027.7mb 42f 37f
7:12am 13 17 mph 1027.6mb 42f 36f
7:06am 10 14 mph 1027.7mb 42f 36f
7:00am 10 14 mph 1027.6mb 42f 36f
6:54am 7 10 mph 1027.5mb 42f 37f
6:48am 8 10 mph 1027.5mb 42f 37f
6:42am 7 9 mph 1027.3mb 42f 37f
6:36am 8 11 mph 1027.4mb 42f 37f
6:30am 9 11 mph 1027.3mb 42f 37f
6:24am 10 13 mph 1027mb 42f 37f
6:18am 10 14 mph 1027mb 42f 37f
6:12am 11 15 mph 1026.9mb 42f 37f
6:06am 10 13 mph 1027mb 42f 37f
6:00am 11 15 mph 1027mb 42f 37f
5:54am 10 13 mph 1026.8mb 42f 37f
5:48am 11 14 mph 1026.8mb 42f 37f
5:42am 13 15 mph 1026.8mb 42f 37f
5:36am 10 11 mph 1026.8mb 42f 37f
5:30am 13 16 mph 1026.8mb 42f 37f
5:24am 11 14 mph 1026.7mb 42f 37f
5:18am 13 15 mph 1026.6mb 42f 37f
5:12am 10 13 mph 1026.5mb 42f 37f
5:06am 9 14 mph 1026.4mb 42f 37f
5:00am 11 15 mph 1026.4mb 42f 37f
4:54am 10 11 mph 1026.4mb 42f 37f
4:48am 10 11 mph 1026.2mb 42f 38f
4:42am 11 15 mph 1026.2mb 42f 38f
4:36am 9 11 mph 1026mb 42f 38f
4:30am 8 9 mph 1026mb 42f 38f
4:24am 9 10 mph 1025.8mb 42f 38f
4:18am 9 11 mph 1025.8mb - -
4:12am 10 13 mph 1025.9mb 42f 38f
4:06am 9 11 mph 1025.8mb 42f 38f
4:00am 9 11 mph 1025.5mb 42f 38f
3:54am 8 10 mph 1025.4mb 42f 38f
3:48am 8 9 mph 1025.6mb 42f 38f
3:42am 8 9 mph 1025.6mb 42f 38f
3:36am 8 10 mph 1025.5mb 42f 38f
3:30am 7 9 mph 1025.4mb 42f 38f
3:24am 6
mph
1025.5mb 42f 38f
3:18am 5 6 mph 1025.7mb 42f 38f
3:12am 6 7 mph 1025.7mb 42f 38f
3:06am 5 6 mph 1025.7mb 42f 38f
3:00am 5 6 mph 1025.7mb 42f 38f
2:54am 3 6 mph 1025.7mb 42f 38f
2:48am 3 5 mph 1025.8mb 42f -
2:42am 5 6 mph 1025.8mb 42f 38f
2:36am 5 6 mph 1025.8mb 42f 38f
2:30am 5 6 mph 1025.9mb 42f 38f
2:24am 6 7 mph 1026mb 42f 38f
2:18am 5 6 mph 1026mb 42f 38f
2:12am 5 6 mph 1026mb 42f 38f
2:06am 6
mph
1026mb 42f 38f
2:00am 5 6 mph 1026mb 42f 38f
1:54am 5 6 mph 1026.1mb 42f 38f
1:48am 5 6 mph 1026mb 42f -
1:42am 5 6 mph 1026mb 42f -
1:36am 3 6 mph 1026mb 42f -
1:30am 6 7 mph 1026.1mb 42f 38f
1:24am 3 5 mph 1025.8mb 42f 38f
1:18am 5 6 mph 1025.9mb 42f -
1:12am 8 9 mph 1026.1mb 42f 38f
1:06am 6 8 mph 1026.1mb 42f 38f
1:00am 8 9 mph 1026.2mb 42f 38f
12:54am 9 10 mph 1026.2mb 42f 38f
12:48am 8 10 mph 1026.3mb 42f 38f
12:42am 8 9 mph 1026.3mb - -
12:36am 11 15 mph 1026.4mb - -
12:30am 10 14 mph 1026.6mb 42f 39f
12:24am 10 13 mph 1026.7mb 42f 39f
12:18am 11 15 mph 1026.7mb 42f 39f
12:12am 13 15 mph 1026.7mb 42f 39f
12:06am 9 11 mph 1026.7mb 42f 40f
12:00am 10 14 mph 1026.7mb 42f 40f
Sat 01/14 11:54pm 9 13 mph 1026.5mb 42f 40f
11:48pm 8 9 mph 1026.4mb 42f 40f
11:42pm 8 10 mph 1026.4mb 42f 40f
11:36pm 7 8 mph 1026.5mb 42f 40f
11:30pm 6 8 mph 1026.5mb 42f 40f
11:24pm 7
mph
1026.6mb 42f 40f
11:18pm 5 6 mph 1026.6mb 42f 40f
11:12pm 3 5 mph 1026.7mb 42f 40f
11:06pm 3
mph
1026.7mb 42f 40f
11:00pm 3
mph
1026.9mb 42f 40f
10:54pm 3 5 mph 1026.9mb 42f 40f
10:48pm 5
mph
1027.1mb 42f 40f
10:42pm 5 6 mph 1027.2mb 42f 40f
10:36pm 5 6 mph 1027.4mb 42f 40f
10:30pm 5
mph
1027.5mb 42f 41f
10:24pm 3 5 mph 1027.5mb 42f 41f
10:18pm 2 3 mph 1027.6mb - -
10:12pm 3
mph
1027.7mb 42f 41f
10:06pm 5
mph
1027.8mb 42f 41f
10:00pm 3 5 mph 1027.9mb 42f 41f
9:54pm 3 5 mph 1028mb 42f 41f
9:48pm 3 6 mph 1028mb 42f 41f
9:42pm 6
mph
1028.1mb 42f 41f
9:36pm 5 6 mph 1028mb 42f 41f
9:30pm 2 5 mph 1028mb 42f 41f
9:24pm 2 6 mph 1027.9mb 42f 41f
9:18pm 3 5 mph 1028mb 42f 41f
9:12pm 2 3 mph 1027.9mb 42f 41f
9:06pm 2 3 mph 1027.8mb 42f 41f
9:00pm  -  2 mph 1027.9mb 42f 41f
8:54pm 3 5 mph 1027.9mb 42f 41f
8:48pm 3 5 mph 1028mb 42f 41f
8:42pm 2 5 mph 1028.1mb 42f 41f
8:36pm 2 3 mph 1028.2mb 42f 41f
8:30pm 1 3 mph 1028.3mb 42f 41f
8:24pm 3 5 mph 1028.4mb 42f 41f
8:18pm 2 5 mph 1028.5mb 42f 41f
8:12pm 3 6 mph 1028.6mb 42f 41f
8:06pm 2 6 mph 1028.6mb 42f 41f
8:00pm 2 5 mph 1028.7mb 42f 41f
7:54pm 3 6 mph 1028.8mb 42f 41f
7:48pm 5 8 mph 1028.9mb 42f 41f
7:42pm 3 5 mph 1028.8mb 42f 41f
7:36pm 3 7 mph 1028.8mb 42f 41f
7:30pm 3 7 mph 1028.9mb 42f 41f
7:24pm 3 7 mph 1029mb 42f 41f
7:18pm 5 7 mph 1028.9mb 42f -
7:12pm 3 6 mph 1029mb 42f 41f
7:06pm 5 6 mph 1029.1mb 42f 41f
7:00pm 3 6 mph 1029.3mb 42f 40f
6:54pm 1 5 mph 1029.2mb 42f 40f
6:48pm 6 8 mph 1029.5mb 42f 40f
6:42pm 5 6 mph 1029.6mb 42f 40f
6:36pm 3 6 mph 1029.4mb 42f 40f
6:30pm 3 6 mph 1029.3mb 42f 40f
6:24pm 3 6 mph 1029.5mb 42f 40f
6:18pm 3 6 mph 1029.7mb 42f 40f
6:12pm 5 9 mph 1029.7mb 42f 40f
6:06pm 3 7 mph 1030.1mb 42f 40f
6:00pm 5 9 mph 1030mb 42f 39f
5:54pm 5 8 mph 1030mb 42f 39f
5:48pm 3 7 mph 1030.1mb 42f 39f
5:42pm 5 8 mph 1030.1mb 42f 39f
5:36pm 5 9 mph 1030.1mb 42f 39f
5:30pm 5 8 mph 1030.4mb 42f 39f
5:24pm 3 8 mph 1030.4mb 42f 39f
5:18pm 6 9 mph 1030.4mb 42f 39f
5:12pm 6 11 mph 1030.6mb 42f 39f
5:06pm 5 9 mph 1030.5mb 42f 39f
5:00pm 5 8 mph 1030.7mb 42f 38f
4:54pm 5 7 mph 1030.8mb 42f 38f
4:48pm 7 10 mph - - -
4:42pm 5 7 mph 1031.1mb 42f 38f
4:36pm 6 9 mph 1031.2mb 42f 39f
4:30pm 7 11 mph 1031.7mb 42f 39f
4:24pm 7 14 mph 1031.6mb 42f 39f
4:18pm 9 14 mph 1031.5mb 42f 39f
4:12pm 5 7 mph 1031.5mb 42f 39f
4:06pm 6 11 mph 1031.4mb 42f 39f
4:00pm 6 9 mph 1031.6mb 42f 39f
3:54pm 3 7 mph 1031.5mb 42f 39f
3:48pm 3 7 mph 1031.5mb - -
3:42pm 6 8 mph 1031.7mb 42f 39f
3:36pm 3 8 mph 1031.7mb 42f 39f
3:30pm 5 8 mph 1031.6mb 42f 39f
3:24pm 7 10 mph 1031.7mb 42f 39f
3:18pm 7 10 mph 1031.7mb 42f 39f
3:12pm 7 10 mph 1031.7mb 42f 39f
3:06pm 6 9 mph 1031.8mb 42f 39f
3:00pm 7 10 mph 1031.9mb 42f 40f
2:54pm 7 9 mph 1032mb 42f 40f
2:48pm 7 10 mph 1032mb 42f 40f
2:42pm 6 9 mph 1032.2mb 42f 40f
2:36pm 5 8 mph 1032.5mb 42f 40f
2:30pm 7 9 mph 1032.4mb 42f 40f
2:24pm 5 8 mph 1032.4mb 42f 40f
2:18pm 6 9 mph 1032.4mb - -
2:12pm 8 10 mph 1032.6mb 42f 40f
2:06pm 6 9 mph 1032.8mb 42f 40f
2:00pm 6 10 mph 1032.8mb 42f 40f
1:54pm 5 8 mph 1032.9mb 42f 40f
1:48pm 5 8 mph 1033.1mb 42f 40f
1:42pm 7 8 mph 1033mb 42f 40f
1:36pm 5 8 mph 1033mb 42f 40f
1:30pm 3 7 mph 1033.1mb 42f 41f
1:24pm 3 6 mph 1033.1mb 42f 41f
1:18pm 2 6 mph 1033.4mb 42f 41f
1:12pm 3 6 mph 1033.6mb 42f 41f
1:06pm 2 5 mph 1033.7mb 42f 41f
1:00pm 2 5 mph 1033.7mb 42f 41f
12:54pm 3 5 mph 1033.8mb 42f 41f
12:48pm 3 6 mph 1034mb 42f 41f
12:42pm 3 5 mph 1033.7mb 42f 41f
12:36pm 3 5 mph 1033.8mb 42f 41f
12:30pm 2 3 mph 1034mb 42f 41f
12:24pm 2 3 mph 1034.4mb 42f 41f
12:18pm 2 5 mph 1034.7mb 42f 41f
12:12pm 2 6 mph 1034.7mb 42f 41f
12:06pm 3 7 mph 1034.9mb 42f 40f
12:00pm 2 3 mph 1035mb 42f 41f
11:54am 5 7 mph 1035.1mb 42f 41f
11:48am 5 6 mph 1035.3mb 42f -
11:42am 2 5 mph 1035.5mb 42f 40f
11:36am 3 5 mph 1035.5mb 42f 41f
11:30am 3 5 mph 1035.6mb 42f 41f
11:24am 3 5 mph 1035.8mb 42f 41f
11:18am 5 6 mph 1036.2mb 42f 41f
11:12am 3 6 mph 1036.3mb 42f 40f
11:06am 6 7 mph 1036.4mb 42f 41f
11:00am 5 7 mph 1036.5mb 42f 40f
10:54am 6 9 mph 1036.7mb 42f 40f
10:48am 5 7 mph 1036.9mb 42f 40f
10:42am 6 7 mph 1037.1mb 42f 40f
10:36am 6 9 mph 1037.2mb 42f 40f
10:30am 7 9 mph 1037.3mb 42f 40f
10:24am 7 10 mph 1037.5mb 42f 40f
10:18am 7 8 mph 1037.6mb 42f 40f
10:12am 6 8 mph 1037.9mb 42f 40f
10:06am 7 11 mph 1038mb 42f 40f
10:00am 7 11 mph 1037.9mb 42f 40f
9:54am 6 8 mph 1038.1mb 42f 40f
9:48am 7 11 mph 1038.1mb 42f 40f
9:42am 7 10 mph 1038.1mb 42f 40f
9:36am 8 13 mph 1037.9mb 42f 40f
9:30am 8 11 mph 1037.9mb 42f 40f
9:24am 8 11 mph 1037.9mb 42f 40f
9:18am 8 11 mph 1037.9mb 42f 40f
9:12am 7 14 mph 1037.8mb 42f 40f
9:06am 7 13 mph 1037.9mb 42f 40f
9:00am 7 9 mph 1037.8mb 42f 40f
8:54am 8 13 mph 1037.7mb 42f 40f
8:48am 3 7 mph 1037.9mb - -
8:42am 6 11 mph 1037.9mb 42f 38f
8:36am 5 9 mph 1037.8mb 42f 38f
8:30am 6 10 mph 1037.9mb 42f 38f
8:24am 6 9 mph 1037.9mb 42f 38f
8:18am 7 13 mph 1037.9mb 42f -
8:12am 7 14 mph 1038.1mb 42f 38f
8:06am 5 10 mph 1038.3mb 42f 38f
8:00am 5 9 mph 1038.4mb 42f 38f
7:54am 6 11 mph 1038.4mb 42f 37f
7:48am 6 9 mph 1038.3mb 42f 37f
7:42am 6 11 mph 1038.3mb 42f 37f
7:36am 5 11 mph 1038.3mb 42f 37f
7:30am 5 13 mph 1038.5mb 42f 38f
7:24am 6 11 mph 1038.4mb 42f 38f
7:18am 8 13 mph 1037.9mb 42f -
7:12am 9 14 mph 1037.9mb 42f 37f
7:06am 6 13 mph 1038mb 42f 37f
7:00am 6 9 mph 1038mb 42f 37f
6:54am 8 15 mph 1037.9mb 42f 37f
6:48am 8 13 mph 1038mb 42f 37f
6:42am 8 13 mph 1038mb 42f 37f
6:36am 8 14 mph 1038.2mb 42f 36f
6:30am 8 14 mph 1038.2mb 42f 36f
6:24am 7 15 mph 1038.1mb 42f 36f
6:18am 8 14 mph 1038.1mb 42f 35f
6:12am 6 10 mph 1038.3mb 42f 35f
6:06am 7 14 mph 1038.5mb 42f 35f
6:00am 7 14 mph 1038.4mb 43f 36f
5:54am 9 16 mph 1038.3mb 43f 36f
5:48am 7 14 mph 1038.6mb 43f -
5:42am 8 14 mph 1038.5mb 43f 36f
5:36am 7 13 mph 1038.6mb 43f 37f
5:30am 5 9 mph 1038.6mb 43f 37f
5:24am 6 11 mph 1038.6mb 43f 37f
5:18am 6 11 mph 1038.7mb 43f 37f
5:12am 8 14 mph 1038.9mb 43f 37f
5:06am 6 13 mph 1038.6mb 43f 37f
5:00am 6 14 mph 1038.5mb 43f 38f
4:54am 7 16 mph 1038.7mb 43f 38f
4:48am 6 13 mph 1038.7mb 43f 38f
4:42am 6 13 mph 1038.6mb 43f 38f
4:36am 6 13 mph 1038.6mb 43f 38f
4:30am 8 14 mph 1038.4mb 43f 38f
4:24am 8 14 mph 1038.5mb 43f 38f
4:18am 6 11 mph 1038.3mb - -
4:12am 10 17 mph 1038mb 43f 38f
4:06am 8 15 mph 1038.1mb 43f 39f
4:00am 10 16 mph 1038.2mb 43f 39f
3:54am 6 9 mph 1038mb 43f 39f
3:48am 7 11 mph 1038.4mb 43f 39f
3:42am 7 17 mph 1038.4mb 43f 39f
3:36am 6 10 mph 1038.5mb 43f 39f
3:30am 6 10 mph 1038.4mb 42f 39f
3:24am 10 17 mph 1038.3mb 42f 39f
3:18am 7 16 mph 1038.1mb - -
3:12am 9 16 mph 1038.1mb 42f 39f
3:06am 7 14 mph 1038mb 42f 39f
3:00am 8 14 mph 1038.1mb 42f 39f
2:54am 7 13 mph 1038.1mb 42f 39f
2:48am 13 17 mph 1038.1mb - -
2:42am 9 16 mph 1038.3mb 42f 40f
2:36am 9 16 mph 1038.6mb 42f 40f
2:30am 6 14 mph 1038.7mb 42f 40f
2:24am 5 9 mph 1038.8mb 42f 40f
2:18am 6 15 mph 1038.8mb 42f 40f
2:12am 6 14 mph 1038.8mb 42f 40f
2:06am 8 13 mph 1038.6mb 42f 40f
2:00am 7 15 mph 1038.4mb 42f 40f
1:54am 7 13 mph 1038.5mb 42f 40f
1:48am 5 13 mph 1038.8mb - -
1:42am 8 13 mph 1038.6mb 42f -
1:36am 7 11 mph 1038.7mb 42f -
1:30am 8 13 mph 1038.6mb 42f 41f
1:24am 6 13 mph 1038.7mb 42f 41f
1:18am 3 7 mph 1038.5mb 42f 41f
1:12am 6 13 mph 1038.4mb 42f 41f
1:06am 9 14 mph 1038.6mb 42f 41f
1:00am 8 16 mph 1038.5mb 42f 41f
12:54am 6 16 mph 1038.4mb 42f 41f
12:48am 9 14 mph 1038.6mb 42f 42f
12:42am 7 11 mph 1038.5mb 42f 42f
12:36am 9 14 mph 1038.5mb 42f 42f
12:30am 7 13 mph 1038.2mb 42f 42f
12:24am 8 14 mph 1038.5mb 42f 42f
12:18am 6 16 mph 1038.4mb 42f -
12:12am 5 10 mph 1038.3mb 42f 42f
12:06am 6 10 mph 1038.2mb 42f 42f
12:00am 5 11 mph 1038.4mb 42f 42f
Fri 01/13 11:54pm 6 13 mph 1038.4mb 42f 42f
11:48pm 6 10 mph 1038.4mb 42f 42f
11:42pm 7 14 mph 1038.5mb 42f 43f
11:36pm 9 14 mph 1038.7mb 42f 43f
11:30pm 9 14 mph 1038.4mb 42f 43f
11:24pm 11 16 mph 1038.5mb 42f 43f
11:18pm 11 17 mph 1038.5mb 42f 43f
11:12pm 9 13 mph 1038.5mb 42f 43f
11:06pm 10 16 mph 1038.4mb 42f 43f
11:00pm 6 11 mph 1038mb 42f 43f
10:54pm 9 16 mph 1038.1mb 42f 43f
10:48pm 9 13 mph 1038.3mb 42f 43f
10:42pm 11 15 mph 1038.4mb 42f 43f
10:36pm 8 14 mph 1038.1mb 42f 44f
10:30pm 9 13 mph 1038.4mb 42f 44f
10:24pm 8 13 mph 1038.1mb 42f 44f
10:18pm 9 15 mph 1038.2mb 42f 44f
10:12pm 10 15 mph 1038mb 42f 44f
10:06pm 8 14 mph 1037.8mb 42f 44f
10:00pm 7 9 mph 1037.6mb 42f -
9:54pm 8 10 mph 1037.5mb 42f -
9:48pm 9 14 mph 1037.5mb - -
9:42pm 6 10 mph 1037.5mb 42f 44f
9:36pm 8 10 mph 1037.5mb 42f 44f
9:30pm 9 11 mph 1037.8mb 42f 44f
9:24pm 10 13 mph 1037.8mb 42f 44f
9:18pm 9 11 mph 1037.8mb 42f 44f
9:12pm 9 11 mph 1037.6mb 42f 44f
9:06pm 9 11 mph 1037.5mb 42f 44f
9:00pm 11 14 mph 1037.6mb 42f 44f
8:54pm 11 14 mph 1037.6mb 42f 44f
8:48pm 11 14 mph 1037.6mb 42f 44f
8:42pm 9 11 mph 1037.5mb 42f 44f
8:36pm 10 13 mph 1037.4mb 42f 44f
8:30pm 10 14 mph 1037.2mb 42f 44f
8:24pm 11 14 mph 1037.1mb 42f 45f
8:18pm 10 14 mph 1037.1mb 42f 45f
8:12pm 10 13 mph 1037.2mb 42f 45f
8:06pm 10 16 mph 1037.3mb 42f 45f
8:00pm 10 13 mph 1037.2mb 42f 45f
7:54pm 10 14 mph 1037mb 42f 45f
7:48pm 10 13 mph 1036.8mb 42f 45f
7:42pm 10 13 mph 1036.5mb 42f 46f
7:36pm 9 10 mph 1036.2mb 42f 46f
7:30pm 9 10 mph 1036mb 42f 46f
7:24pm 10 11 mph 1036mb 42f 46f
7:18pm 10 14 mph 1036mb 42f 46f
7:12pm 9 10 mph 1035.8mb 43f 46f
7:06pm 9 13 mph 1035.8mb 43f 46f
7:00pm 10 13 mph 1035.9mb 43f 46f
6:54pm 8 10 mph 1035.6mb 43f 46f
6:48pm 8 9 mph - - -
6:42pm 8 10 mph 1035.5mb 43f 46f
6:36pm 8 9 mph 1035.4mb 43f 46f
6:30pm 10 14 mph 1035.4mb 43f 47f
6:24pm 11 15 mph 1035.6mb 44f 47f
6:18pm 8 10 mph - - -
6:12pm 9 11 mph 1035.6mb 44f 47f
6:06pm 9 11 mph 1035.4mb 44f 47f
6:00pm 10 14 mph 1035.2mb 44f 47f
5:54pm 10 13 mph 1035mb 44f 47f
5:48pm 8 10 mph 1035mb 44f 47f
5:42pm 10 13 mph 1035mb 44f 47f
5:36pm 9 13 mph 1034.7mb 44f 47f
5:30pm 10 14 mph 1034.8mb 44f 47f
5:24pm 10 13 mph 1034.9mb 44f 47f
5:18pm 6 10 mph 1034.6mb 44f 47f
5:12pm 6 8 mph 1034.4mb 44f 47f
5:06pm 7 11 mph 1034.3mb 44f 47f
5:00pm 7 14 mph 1034.3mb 44f 47f
4:54pm 7 11 mph 1034mb 44f 48f
4:48pm 7 10 mph 1033.9mb 44f 48f
4:42pm 7 10 mph 1033.8mb 44f 48f
4:36pm 6 10 mph 1033.8mb 44f 48f
4:30pm 8 13 mph 1033.6mb 44f 48f
4:24pm 7 13 mph 1033.6mb 44f 49f
4:18pm 9 14 mph 1033.3mb 44f 49f
4:12pm 10 14 mph 1033.1mb 44f 49f
4:06pm 9 15 mph 1032.9mb 44f 50f
4:00pm 8 11 mph 1032.8mb 44f 50f
3:54pm 8 13 mph 1032.9mb 44f 50f
3:48pm 8 11 mph 1032.9mb 44f 50f
3:42pm 3 6 mph 1032.8mb 44f 49f
3:36pm 6 8 mph 1032.8mb 44f 49f
3:30pm 6 8 mph 1032.8mb 43f 50f
3:24pm 7 9 mph 1032.7mb 43f 49f
3:18pm 6 9 mph 1032.6mb 43f 51f
3:12pm 5 6 mph 1032.5mb 43f 51f
3:06pm 3 6 mph 1032.4mb 43f 50f
3:00pm 6 8 mph 1032.2mb 43f 49f
2:54pm 5 8 mph 1032.1mb 43f 48f
2:48pm 9 11 mph 1031.9mb 43f 49f
2:42pm 10 11 mph 1031.7mb 43f 50f
2:36pm 8 9 mph 1031.7mb 43f 49f
2:30pm 10 14 mph 1031.7mb 43f 49f
2:24pm 8 13 mph 1031.4mb 43f 49f
2:18pm 7 10 mph 1031.3mb 43f -
2:12pm 7 11 mph 1031.1mb 43f 49f
2:06pm 8 13 mph 1031.1mb 43f 49f
2:00pm 8 11 mph 1031mb 42f 50f
1:54pm 8 13 mph 1031.1mb 42f 49f
1:48pm 9 14 mph 1030.9mb 42f 50f
1:42pm 9 13 mph 1030.9mb 42f 49f
1:36pm 10 16 mph 1030.9mb 42f 49f
1:30pm 9 14 mph 1030.9mb 42f 49f
1:24pm 8 13 mph 1030.9mb 42f 49f
1:18pm 9 16 mph 1030.8mb 42f 49f
1:12pm 10 14 mph 1030.9mb 42f 49f
1:06pm 11 16 mph 1031mb 42f 50f
1:00pm 10 15 mph 1030.9mb 42f 50f
12:54pm 10 15 mph 1030.9mb 42f 50f
12:48pm 11 16 mph 1030.8mb - -
12:42pm 15 18 mph 1030.9mb 42f 52f
12:36pm 16 22 mph 1030.8mb 42f 53f
12:30pm 11 15 mph 1030.6mb 42f 52f
12:24pm 8 10 mph 1030.6mb 42f 51f
12:18pm 10 13 mph 1030.4mb - -
12:12pm 13 17 mph 1030.4mb 42f 53f
12:06pm 11 15 mph 1030.4mb 42f 52f
12:00pm 16 20 mph 1030.5mb 42f 53f
11:54am 16 20 mph 1030.7mb 42f 54f
11:48am 15 17 mph 1030.7mb 42f 53f
11:42am 17 21 mph 1030.6mb 42f 53f
11:36am 17 22 mph 1030.7mb 42f 53f
11:30am 14 18 mph 1030.9mb 42f 54f
11:24am 14 17 mph 1030.9mb 42f 54f
11:18am 13 21 mph 1031mb - -
11:12am 15 18 mph 1030.8mb 42f 54f
11:06am 16 21 mph 1030.6mb 42f 54f
11:00am 15 20 mph 1030.7mb 42f 54f
10:54am 16 22 mph 1030.6mb 42f 54f
10:48am 16 23 mph 1030.6mb 42f 53f
10:42am 16 21 mph 1030.5mb 41f 54f
10:36am 18 23 mph 1030.5mb 41f 54f
10:30am 15 18 mph 1030.4mb 41f 54f
10:24am 14 18 mph 1030.4mb 42f 54f
10:18am 14 18 mph 1030.3mb 42f 53f
10:12am 8 11 mph 1030.4mb 42f 50f
10:06am 7 9 mph 1030.4mb 42f 50f
10:00am 10 14 mph 1030.4mb 42f 50f
9:54am 8 13 mph 1030.2mb 42f 53f
9:48am 9 15 mph 1030.2mb 42f 53f
9:42am 5 8 mph 1030.1mb 42f 50f
9:36am 6 8 mph 1030.1mb 42f 50f
9:30am 2 3 mph 1030mb 42f 51f
9:24am  -  2 mph 1029.9mb 42f 51f
9:18am 1 5 mph 1029.5mb 42f 52f
9:12am 6 9 mph 1029.4mb 42f 54f
9:06am 7 8 mph 1029.2mb 42f 53f
9:00am 6 8 mph 1029.1mb 42f 53f
8:54am 7 8 mph 1029mb 42f 54f
8:48am 9 11 mph 1028.9mb 42f -
8:42am 9 10 mph 1028.8mb 42f 56f
8:36am 11 14 mph 1028.6mb 42f 56f
8:30am 10 13 mph 1028.5mb 42f 56f
8:24am 10 14 mph 1028.3mb 42f 56f
8:18am 10 13 mph 1028.2mb 42f 56f
8:12am 10 13 mph 1028.2mb 42f 56f
8:06am 9 11 mph 1028mb 42f 56f
8:00am 8 11 mph 1027.7mb 42f 56f
7:54am 9 10 mph 1027.6mb 42f 56f
7:48am 8 10 mph 1027.5mb 42f 56f
7:42am 10 13 mph 1027.4mb 42f 57f
7:36am 10 15 mph 1027.3mb 42f 56f
7:30am 10 14 mph 1027.3mb 42f 57f
7:24am 9 13 mph 1027.1mb 42f 56f
7:18am 7 10 mph 1027mb 42f 57f
7:12am 6 8 mph 1026.8mb 42f 57f
7:06am 6 10 mph 1026.8mb 42f 57f
7:00am 7 9 mph 1026.6mb 42f 57f
6:54am 7 11 mph 1026.5mb 42f 57f
6:48am 6 9 mph 1026.3mb - -
6:42am 8 11 mph 1026.1mb 42f 58f
6:36am 6 8 mph 1025.8mb 42f 57f
6:30am 6 8 mph 1025.7mb 42f 57f
6:24am 8 10 mph 1025.6mb 42f 58f
6:18am 8 10 mph 1025.4mb 42f 57f
6:12am 6 7 mph 1025.3mb 42f 50f
6:06am 5 6 mph 1025.1mb 42f 48f
6:00am 5 6 mph 1024.9mb 42f 49f
5:54am 6 7 mph 1025mb 42f 48f
5:48am 6 9 mph 1024.9mb 42f 49f
5:42am 5 6 mph 1024.8mb 42f 49f
5:36am 2 3 mph 1024.8mb 42f 49f
5:30am 3 5 mph 1024.8mb 42f 48f
5:24am 6
mph
1024.8mb 42f 49f
5:18am 9 10 mph 1024.6mb 43f 49f
5:12am 11 13 mph 1024.5mb 43f 47f
5:06am 9 10 mph 1024.5mb 43f 48f
5:00am 9 10 mph 1024.4mb 43f 47f
4:54am 10
mph
1024.3mb 43f 47f
4:48am 9 10 mph 1024.3mb 43f 47f
4:42am 9 10 mph 1024.3mb 43f 49f
4:36am 9 10 mph 1024.2mb 43f 48f
4:30am 9 10 mph 1024.3mb 43f 49f
4:24am 9 10 mph 1024.3mb 43f 48f
4:18am 7 8 mph 1024.3mb 43f 48f
4:12am 6
mph
1024.3mb 44f 50f
4:06am 10 14 mph 1024.2mb 44f 56f
4:00am 9 10 mph 1024.3mb 44f 56f
3:54am 8 11 mph 1024.4mb 44f 56f
3:48am 9 10 mph 1024.5mb 44f 56f
3:42am 8 10 mph 1024.5mb 44f 56f
3:36am 9 11 mph 1024.5mb 44f 57f
3:30am 8 10 mph 1024.5mb 44f 57f
3:24am 9 15 mph 1024.4mb 44f 58f
3:18am 9 14 mph 1024.4mb 44f 58f
3:12am 9 13 mph 1024.4mb 44f 58f
3:06am 10 13 mph 1024.5mb 44f 58f
3:00am 10 15 mph 1024.5mb 44f 58f
2:54am 11 15 mph 1024.5mb 44f 59f
2:48am 13 16 mph 1024.5mb 44f -
2:42am 14 20 mph 1024.4mb 44f 60f
2:36am 13 16 mph 1024.4mb 44f 60f
2:30am 13 17 mph 1024.1mb 44f 60f
2:24am 13 17 mph 1023.9mb 44f 59f
2:18am 14 21 mph 1023.8mb 44f 60f
2:12am 13 20 mph 1023.8mb 44f 60f
2:06am 14 21 mph 1023.6mb 44f 60f
2:00am 16 23 mph 1023.6mb 43f 61f
1:54am 17 22 mph 1023.5mb 43f 61f
1:48am 16 21 mph 1023.4mb 43f 60f
1:42am 15 22 mph 1023.4mb 43f 60f
1:36am 14 18 mph 1023.3mb 43f 60f
1:30am  -  mph 1023.2mb 43f 59f
1:24am  -  mph 1023.2mb 43f 57f
1:18am  -  mph 1023.1mb 42f -
1:12am  -  mph 1023.1mb 42f 55f
1:06am  -  mph 1023.1mb 42f -
1:00am  -  mph 1023mb 42f -
12:54am  -  mph 1023mb 42f -
12:48am  -  mph 1022.9mb - -
12:42am  -  mph 1022.8mb 42f 60f
12:36am  -  mph 1022.8mb 42f 60f
12:30am  -  mph 1022.8mb 42f 60f
12:24am  -  mph 1022.7mb 42f 61f
12:18am  -  mph 1022.7mb 42f 60f
12:12am  -  mph 1022.7mb 42f 60f
12:06am  -  mph 1022.7mb 42f 61f
12:00am  -  mph 1022.7mb 42f 60f
Thu 01/12 11:54pm  -  mph 1022.6mb 42f 62f
11:48pm 21 25 mph 1022.6mb 41f 61f
11:42pm 18 22 mph 1022.5mb 41f 60f
11:36pm 18 21 mph 1022.5mb 41f 60f
11:30pm 18 26 mph 1022.5mb 41f 61f
11:24pm 20 26 mph 1022.6mb 41f 62f
11:18pm 20 24 mph 1022.5mb 41f 62f
11:12pm 21 28 mph 1022.5mb 41f 62f
11:06pm 18 26 mph 1022.5mb 41f 62f
11:00pm 22 28 mph 1022.5mb 41f 63f
10:54pm 22 28 mph 1022.4mb 41f 63f
10:48pm 20 26 mph 1022.5mb 41f 62f
10:42pm 20 25 mph 1022.5mb 41f 62f
10:30pm 17 22 mph 1022.7mb 41f 62f
10:24pm 18 23 mph 1022.7mb 41f 61f
10:18pm 18 25 mph 1022.8mb 41f 62f
10:12pm 18 23 mph 1022.8mb 41f 61f
10:06pm 16 22 mph 1022.6mb 41f 62f
10:00pm  -  mph 1022.7mb 41f 59f
9:54pm  -  mph 1022.8mb 41f 52f
9:48pm  -  mph 1022.8mb 41f 51f
9:42pm  -  mph 1022.8mb 41f 52f
9:36pm  -  mph 1022.9mb 41f 51f
9:30pm  -  mph 1022.9mb 41f 53f
9:24pm  -  mph 1022.9mb 41f 54f
9:18pm  -  mph 1023mb 41f 54f
9:12pm 14 17 mph 1023mb 41f 54f
9:06pm 13 16 mph 1022.9mb 41f 54f
9:00pm 15 18 mph 1022.9mb 41f 54f
8:54pm 14 17 mph 1022.9mb 41f 53f
8:48pm 14 16 mph 1022.8mb 41f 53f
8:42pm 14 17 mph 1022.8mb 41f 53f